[Iaude] MPEC V56: 2016 VS1 [a=0.93,e=0.21,i=4.4,H=25.9]

mpec at si.edu mpec at si.edu
Mon Nov 7 07:53:49 EST 2016


M.P.E.C. 2016-V56                                Issued 2016 Nov. 7, 12:49 UT
 
     The Minor Planet Electronic Circulars contain information on unusual
         minor planets and routine data on comets.  They are published
    on behalf of Division F of the International Astronomical Union by the
          Minor Planet Center, Smithsonian Astrophysical Observatory,
                          Cambridge, MA 02138, U.S.A.

             Prepared using the Tamkin Foundation Computer Network

                              MPC at CFA.HARVARD.EDU
            URL http://www.minorplanetcenter.net/    ISSN 1523-6714


                                   2016 VS1
 
Observations:
     K16V01S* C2016 11 05.28995 03 02 59.04 +25 15 01.9          20.9 VqEV056G96
     K16V01S  C2016 11 05.29425 03 02 57.54 +25 14 45.9          20.8 VqEV056G96
     K16V01S  C2016 11 05.29853 03 02 55.96 +25 14 31.1          21.2 VqEV056G96
     K16V01S  C2016 11 05.30281 03 02 54.45 +25 14 14.3          20.4 VqEV056G96
     K16V01S  C2016 11 05.40753 03 02 16.66 +25 07 45.4          20.6 VqEV056I52
     K16V01S  C2016 11 05.41061 03 02 15.57 +25 07 33.5          20.8 VqEV056I52
     K16V01S  C2016 11 05.41190 03 02 15.13 +25 07 28.5          21.3 VqEV056I52
     K16V01S  C2016 11 05.41448 03 02 14.20 +25 07 18.4          21.3 VqEV056I52
     K16V01S  C2016 11 05.47476 03 01 53.17 +25 03 25.3          21.2 VqEV056G96
     K16V01S  C2016 11 05.47893 03 01 51.76 +25 03 08.5          21.0 VqEV056G96
     K16V01S  C2016 11 05.48268 03 01 50.49 +25 02 53.6          20.8 VqEV056G96
     K16V01S  C2016 11 06.18946 02 58 11.60 +24 18 10.9          20.4 VqEV056G96
     K16V01S  C2016 11 06.19235 02 58 10.55 +24 17 59.5                qEV056G96
     K16V01S  C2016 11 06.19386 02 58 09.97 +24 17 54.9          20.9 VqEV056G96
     K16V01S  C2016 11 06.19639 02 58 09.11 +24 17 46.7          21.2 RoEV056926
     K16V01S  C2016 11 07.29295 02 51 49.40 +23 02 25.4          20.4 VqEV056G96
     K16V01S  C2016 11 07.29490 02 51 48.68 +23 02 17.1          20.2 VqEV056G96
     K16V01S  C2016 11 07.29653 02 51 48.05 +23 02 10.3          20.7 VqEV056G96
     K16V01S  C2016 11 07.29841 02 51 47.28 +23 02 02.4          21.8 VqEV056G96
     K16V01S  C2016 11 07.41593 02 51 00.49 +22 53 21.6          20.3 RoEV056926
     K16V01S  C2016 11 07.41983 02 50 59.02 +22 53 04.0          20.9 RoEV056926
     K16V01S  C2016 11 07.42374 02 50 57.49 +22 52 45.8          20.5 RoEV056926
 
Observer details:
926 Tenagra II Observatory.  Observers M. Schwartz, P. R. Holvorcem.  Measurer
    M. Schwartz.  0.81-m f/7 Ritchey-Chretien + CCD.
G96 Mt. Lemmon Survey.  Observers A. R. Gibbs, R. A. Kowalski.  Measurers
    E. J. Christensen, D. C. Fuls, A. R. Gibbs, A. D. Grauer, J. A. Johnson,
    R. A. Kowalski, S. M. Larson, G. J. Leonard, R. G. Matheny, R. L. Seaman,
    F. C. Shelly.  1.5-m reflector + 10K CCD.
I52 Steward Observatory, Mt. Lemmon Station.  Observer R. G. Matheny.
    Measurers E. J. Christensen, D. C. Fuls, A. R. Gibbs, A. D. Grauer,
    J. A. Johnson, R. A. Kowalski, S. M. Larson, G. J. Leonard, R. G. Matheny,
    R. L. Seaman, F. C. Shelly.  1.0-m reflector + CCD.
 
Orbital elements:
2016 VS1                                                 Earth MOID = 0.0202 AU
Epoch 2016 July 31.0 TT = JDT 2457600.5                 MPC
M 129.20521              (2000.0)            P               Q
n   1.09599826     Peri.  314.29073     -0.99466851     +0.08408929
a   0.9316715      Node   230.62562     -0.05788545     -0.93434311
e   0.2113912      Incl.    4.42901     -0.08534530     -0.34631191
P   0.90           H   25.9           G   0.15           U   8
Residuals in seconds of arc
161105 G96  0.3-  0.1+    161105 G96  0.1-  0.7+    161107 G96  0.3+  0.2-
161105 G96  0.4+  0.4-    161105 G96  0.2+  0.2+    161107 G96  0.6+  0.0
161105 G96  0.0   0.3+    161105 G96  0.3+  0.0     161107 G96  0.3+  0.3+
161105 G96  0.5+  1.0-    161106 G96  0.1-  0.0     161107 926  0.6-  0.1+
161105 I52  0.3-  0.2+    161106 G96  0.1+  0.5-    161107 926  0.1+  0.2+
161105 I52  0.2-  0.1+    161106 G96  0.3-  0.5+    161107 926  0.0   0.1-
161105 I52  0.0   0.1+    161106 926  0.1-  0.0
161105 I52  0.2-  0.1-    161107 G96  0.6-  0.3-

Ephemeris:
2016 VS1                 a,e,i = 0.93, 0.21, 4                   q = 0.7347
Date    TT    R. A. (2000) Decl.     Delta      r     Elong.  Phase     V
2016 10 08    04 01 23.1 +34 46 05   0.1750  1.1161   128.3    44.6    24.1
...
2016 10 23    03 49 13.0 +32 53 07   0.1181  1.0941   145.4    31.1    22.8
...
2016 10 31    03 26 47.0 +29 28 41   0.09119 1.0781   158.5    19.7    21.9
...
2016 11 06    02 59 09.5 +24 30 59   0.07391 1.0643   170.9     8.5    21.0
2016 11 07    02 53 31.9 +23 23 40   0.07135 1.0618   172.8     6.7    20.8
2016 11 08    02 47 36.0 +22 10 17   0.06890 1.0593   174.2     5.4    20.7
...
2016 11 14    02 05 46.1 +12 25 54   0.05679 1.0434   161.8    17.3    20.7
...
2016 11 22    00 56 12.3 -06 26 16   0.04960 1.0200   129.5    48.3    21.2
...
2016 12 07    22 41 25.0 -35 50 46   0.06334 0.9700    74.3   102.1    23.6

A. U. Tomatic                (C) Copyright 2016 MPC           M.P.E.C. 2016-V56




More information about the Iaude mailing list